Location: Tamazert
(32.6352°N, 5.2072°W)
Time: 04:30:12
(UTC+00:00)

Tiros 1 despin weight - Pass Details

Date: 13 October 2022
Orbit: 590 x 637 km, 48.2° (Epoch: 30 November)

Event Time Altitude Azimuth Distance (km) Brightness Sun altitude
Rises 14:20:19 0° 298° (WNW) 2,823 ? 38.5°
Reaches altitude 10° 14:24:15 10° 333° (NNW) 1,932 ? 37.9°
Maximum altitude 14:25:41 11° 352° (N) 1,848 ? 37.7°
Drops below altitude 10° 14:27:07 10° 11° (N) 1,940 ? 37.5°
Sets 14:31:06 0° 46° (NE) 2,858 ? 36.9°
